Regional Weather Roundup
Issued by NWS

Home | Current Version | Previous Version | Graphics & Text | Print | Product List | Glossary On
Versions: 1 2 3 4 5 6 7 8 9 10 11 12 13 14 15 16 17 18 19 20 21 22 23 24 25 26 27 28 29 30 31 32 33 34 35 36 37 38 39 40 41 42 43 44 45 46 47 48 49 50
000
ASUS43 KIND 251409
RWRIN

WEATHER ROUNDUP FOR INDIANA
NATIONAL WEATHER SERVICE INDIANAPOLIS IN
1000 AM EDT WED MAY 25 2016

NOTE: "FAIR" INDICATES FEW OR NO CLOUDS BELOW 12,000 FEET WITH NO
SIGNIFICANT WEATHER AND/OR OBSTRUCTIONS TO VISIBILITY.

* - STATION DOES NOT REPORT WEATHER SUCH AS PRECIPITATION OR FOG.

+ - STATION NOT QUALITY CONTROLLED BY THE NATIONAL WEATHER SERVICE.
    USE DATA WITH CAUTION...ESPECIALLY DEWPOINT AND RELATIVE
    HUMIDITY OBSERVATIONS.

INZ001>003-010>013-019-020-251500-
NORTHWEST INDIANA

CITY           SKY/WX    TMP DP  RH WIND       PRES   REMARKS
GARY /AIRPORT/ MOSUNNY   73  66  78 S6        30.04R
KNOX *+        SUNNY     73  48  40 S8        30.05S
LA PORTE +     SUNNY     76  61  59 S6        30.06F
MICHIGAN CITY+ SUNNY     75  61  60 SW3       30.05S
MONTICELLO +   SUNNY     73  57  57 S5        30.05F
RENSSELAER +   SUNNY     75  61  60 S12       30.06S
VALPARAISO     SUNNY     75  62  64 S10       30.05S

$$

LMZ046-743>745-251500-
SOUTHERN LAKE MICHIGAN

STATION/POSITION TIME  TEMP    WIND        PRES    WAVE
                       AIR SEA DIR/SP/G            HT
                 (UTC) (F)     (DEG/KT/KT) (MB)    (FT)
BURNS HARBOR     1300   72     180/  8/ 11 1017.6R
MICHIGAN CITY    1300   71     160/  8/ 10   N/A
5NW MICH CITY    1400   67 58  190/  4/  4   N/A     0

$$

INZ004-005-014>016-021>024-251500-
NORTH CENTRAL INDIANA

CITY           SKY/WX    TMP DP  RH WIND       PRES   REMARKS
ELKHART        SUNNY     75  64  69 S6        30.07S
GOSHEN         SUNNY     75  58  55 SW7       30.08R
LOGANSPORT +   SUNNY     72  59  64 S10       30.08S
PERU/GRISSOM   PTSUNNY   71  60  68 S13       30.07F
ROCHESTER +    SUNNY     77  61  57 S6        30.07F
SOUTH BEND     SUNNY     75  61  61 S6        30.06F
WARSAW +       CLOUDY    73  59  60 SW5       30.08F

$$

INZ006>009-017-018-025>027-251500-
NORTHEAST INDIANA

CITY           SKY/WX    TMP DP  RH WIND       PRES   REMARKS
ANGOLA *+      SUNNY     73  61  64 S7        30.09S
AUBURN +       MOSUNNY   73  55  53 SW5       30.11R
FORT WAYNE     PTSUNNY   71  57  61 S9        30.11R
HUNTINGTON +   CLOUDY    71  58  62 S5        30.10R

$$

INZ028-029-035-036-043>045-051>053-251500-
WEST CENTRAL INDIANA

CITY           SKY/WX    TMP DP  RH WIND       PRES   REMARKS
CRAWFORDSVL +  SUNNY     72  61  69 SW9       30.08F
GREENCASTLE +  SUNNY     72  63  73 CALM      30.09F
LAFAYETTE      SUNNY     73  60  63 S9        30.07R
TERRE HAUTE    SUNNY     74  61  63 SW8       30.08R

$$

INZ030>032-037>040-046>048-054>057-064-065-251500-
CENTRAL INDIANA

CITY           SKY/WX    TMP DP  RH WIND       PRES   REMARKS
ANDERSON       MOSUNNY   70  59  68 S6        30.12R
CP ATTERBURY + SUNNY     73  59  60 SW8       30.12R
COLUMBUS       MOSUNNY   72  61  68 S8        30.11R
FISHERS *+     CLOUDY    72  63  73 SW6       30.11R
FRANKFORT +      N/A     74  50  41 SW13      30.10S
GREENWOOD *+   MOSUNNY   75  61  60 SW8       30.12R
INDIANAPOLIS   PTSUNNY   73  61  65 S9        30.08S
-EAGLE CREEK   MOSUNNY   74  60  61 SW8       30.09S
KOKOMO *+      CLOUDY    68  57  68 S12       30.09F
MARION +       CLOUDY    69  58  67 S9        30.10F
SHELBYVILLE    CLOUDY    75  58  55 S14       30.10R
ZIONSVILLE +   MOSUNNY   71  60  66 S10       30.11S

$$

INZ033-034-041-042-049-050-058-059-251500-
EAST CENTRAL INDIANA

CITY           SKY/WX    TMP DP  RH WIND       PRES   REMARKS
MUNCIE         CLOUDY    72  56  57 S7        30.11R

$$

INZ060-061-067>069-081>083-085>088-251500-
SOUTHWEST INDIANA

CITY           SKY/WX    TMP DP  RH WIND       PRES   REMARKS
EVANSVILLE     CLOUDY    74  61  63 SW5       30.09S
HUNTINGBURG *+ CLOUDY    73  61  64 S7        30.10S
WASHINGTON +   MOSUNNY   74  64  69 S6        30.08S

$$

INZ062-063-066-070>080-084-089>092-251500-
SOUTH CENTRAL AND SOUTHEAST INDIANA

CITY           SKY/WX    TMP DP  RH WIND       PRES   REMARKS
BEDFORD +      PTSUNNY   73  68  83 CALM      30.10R
BLOOMINGTON    SUNNY     75  60  59 S7        30.10R
MADISON *+     CLOUDY    68  55  64 S7        30.14S
NORTH VERNON + PTSUNNY   72  64  78 CALM      30.12R
SEYMOUR +      CLOUDY    73  59  60 S6        30.11R

$$





USA.gov is the U.S. government's official web portal to all federal, state and local government web resources and services.